Find Starlink 37136

NORAD ID: 68347 Int'l Des: 2026-059 Owner: SPXS Country: US Constellation: starlink operational
LEOCIRCULAR

Live Position

Loading 3D Globe...

About Starlink 37136

Description loading...

Upcoming Passes

Passes for default location (London). Set your location on the main map for personalized predictions.

Altitude History

Loading altitude history...

Two-Line Element Set

1 68347U 26059AC 26105.91668981 -.01918959 00000-0 -19374-1 0 9991
2 68347 53.1599 176.2336 0000815 81.0201 249.4774 15.67759947 5020
Epoch: Apr 15, 2026 • Age: 13 hours

Current Status

Altitude 390.1 km
Velocity 7.68 km/s
Sub-Earth Point -50.49°S, 41.64°E
Launch Date Mar 22, 2026
Age 24 days
Type internet

Technical Details

Classification Payload
Mass 575.00 kg
Dry Mass 530.00 kg
Total Mass 575.00 kg
Length 0.30 m
Diameter 4.10 m
Span 29.00 m
Shape Box + pan
Manufacturer SPXS
Bus Type Starlink V2MO
Phase Status In Orbit
Owner/State SPXS/US

Most Searched